1484845200.45,1732,3.13,74056.3,-9.89,-39.15,-39.35,0,*6D
1484845201.68,1733,3.13,74056.8,-9.89,-39.15,-39.47,0,*69
1484845202.91,1734,3.13,74058.5,-9.91,-39.35,-39.65,0,*65
1484845204.11,1735,3.13,74058.5,-9.89,-39.35,-39.65,0,*6D
1484845205.33,1736,3.13,74060.0,-9.89,-39.53,-39.85,0,*60
1484845206.58,1737,3.13,74052.8,-9.89,-39.29,-39.53,0,*67
1484845207.8,1738,3.13,74060.8,-9.89,-39.15,-39.47,0,*62
1484845209.0,1739,3.13,74056.3,-9.89,-39.09,-39.47,0,*6E
1484845210.25,1740,3.13,74062.8,-9.89,-39.15,-39.53,0,*68
1484845211.47,1741,3.13,74056.8,-9.89,-39.15,-39.47,0,*6C
1484845212.7,1742,3.13,74052.3,-9.89,-39.29,-39.65,0,*60
1484845213.93,1743,3.13,74050.8,-9.89,-39.29,-39.65,0,*61
1484845215.13,1744,3.13,74044.5,-9.89,-39.35,-39.65,0,*6B
1484845216.35,1745,3.13,74052.0,-9.89,-39.15,-39.35,0,*6D
1484845217.6,1746,3.13,74052.0,-9.89,-39.29,-39.53,0,*61
1484845218.8,1747,3.13,74058.5,-9.89,-39.35,-39.65,0,*68
1484845220.06,1748,3.13,74058.3,-9.91,-39.47,-39.71,0,*6E
1484845221.28,1749,3.13,74052.3,-9.89,-39.47,-39.71,0,*66
1484845222.51,1750,3.13,74052.3,-9.89,-39.47,-39.71,0,*6E
1484845223.77,1751,3.13,74062.0,-9.91,-39.47,-39.71,0,*66
1484845224.97,1752,3.13,74054.3,-9.89,-39.35,-39.65,0,*6C
1484845226.18,1753,3.13,74054.3,-9.89,-39.35,-39.65,0,*6D
1484845227.4,1754,3.13,74054.0,-9.89,-39.47,-39.71,0,*6A
1484845228.65,1755,3.19,74062.5,-9.89,-39.53,-39.71,0,*6E
1484845229.86,1756,3.13,74058.5,-9.89,-39.47,-39.65,0,*6D
1484845231.09,1757,3.13,74058.3,-9.89,-39.29,-39.65,0,*64
1484845232.32,1758,3.19,74064.5,-9.91,-39.47,-39.65,0,*6A
1484845233.54,1759,3.13,74058.3,-9.89,-39.15,-39.47,0,*65
1484845234.77,1760,3.13,74052.8,-9.89,-39.15,-39.35,0,*6A
1484845235.99,1761,3.13,74052.8,-9.89,-39.29,-39.65,0,*61
1484845237.25,1762,3.13,74050.3,-9.91,-39.35,-39.71,0,*63
1484845238.52,1763,3.13,74062.0,-9.91,-39.29,-39.53,0,*6F
1484845239.74,1764,3.13,74056.3,-9.89,-39.15,-39.47,0,*6B
1484845240.94,1765,3.13,74058.5,-9.89,-39.35,-39.65,0,*68
1484845242.16,1766,3.13,74058.3,-9.89,-39.35,-39.53,0,*6E
1484845243.41,1767,3.13,74052.3,-9.89,-39.15,-39.53,0,*6D
1484845244.64,1768,3.13,74054.5,-9.91,-39.09,-39.47,0,*63
1484845245.91,1769,3.13,74052.5,-9.87,-38.91,-39.29,0,*6D
1484845247.13,1770,3.13,74058.5,-9.91,-39.09,-39.35,0,*6F
1484845248.36,1771,3.13,74062.5,-9.89,-39.15,-39.47,0,*6F
1484845249.61,1772,3.13,74060.3,-9.89,-39.15,-39.53,0,*69
1484845250.88,1773,3.13,74054.8,-9.87,-39.23,-39.59,0,*69
1484845252.11,1774,3.13,74058.8,-9.87,-39.09,-39.47,0,*69
1484845253.31,1775,3.13,74058.0,-9.89,-39.35,-39.65,0,*69
1484845254.53,1776,3.13,74054.8,-9.89,-39.15,-39.35,0,*6D
1484845255.76,1777,3.13,74060.0,-9.89,-39.09,-39.29,0,*6C
1484845256.95,1778,3.13,74058.3,-9.89,-38.97,-39.47,0,*6D
1484845258.15,1779,3.13,74056.8,-9.89,-39.09,-39.35,0,*6F
1484845259.42,1780,3.13,74056.8,-9.87,-39.03,-39.29,0,*60
1484845260.69,1781,3.13,74062.3,-9.87,-38.91,-39.03,0,*63
1484845261.93,1782,3.13,74052.5,-9.87,-39.23,-39.47,0,*68
1484845263.2,1783,3.13,74066.5,-9.87,-39.03,-39.41,0,*6D
1484845264.42,1784,3.13,74058.5,-9.89,-39.15,-39.47,0,*65
1484845265.64,1785,3.13,74064.3,-9.89,-38.97,-39.15,0,*68
1484845266.84,1786,3.13,74060.8,-9.89,-38.97,-39.09,0,*66
1484845268.07,1787,3.13,74062.5,-9.87,-38.85,-38.85,0,*6F
1484845269.34,1788,3.13,74060.8,-9.87,-38.91,-39.29,0,*62
1484845270.61,1789,3.13,74064.5,-9.87,-39.03,-39.41,0,*67
1484845271.86,1790,3.13,74062.8,-9.87,-39.09,-39.41,0,*65
1484845273.11,1791,3.13,74064.8,-9.87,-38.85,-39.03,0,*67
1484845274.34,1792,3.13,74060.5,-9.87,-38.85,-39.09,0,*6E
1484845275.56,1793,3.13,74056.5,-9.85,-38.91,-39.09,0,*68
1484845276.81,1794,3.13,74062.3,-9.85,-38.91,-39.23,0,*67
1484845278.06,1795,3.13,74058.0,-9.85,-38.91,-39.29,0,*6C
1484845279.31,1796,3.13,74066.5,-9.87,-39.09,-39.41,0,*63
1484845280.55,1797,3.13,74060.5,-9.85,-38.91,-39.23,0,*64
1484845281.78,1798,3.13,74060.3,-9.85,-38.91,-39.09,0,*63
1484845283.03,1799,3.13,74056.3,-9.85,-39.03,-39.23,0,*60
1484845284.27,1800,3.13,74064.5,-9.85,-39.03,-39.29,0,*65
1484845285.49,1801,3.13,74058.3,-9.85,-39.23,-39.47,0,*6E
1484845286.74,1802,3.13,74056.0,-9.85,-39.03,-39.29,0,*67
1484845287.96,1803,3.13,74066.0,-9.85,-39.09,-39.41,0,*62
1484845289.19,1804,3.13,74062.5,-9.85,-39.03,-39.09,0,*63
1484845290.44,1805,3.13,74058.0,-9.87,-38.79,-39.09,0,*6C
1484845291.69,1806,3.13,74056.8,-9.85,-39.03,-39.29,0,*63
1484845292.94,1807,3.13,74056.3,-9.85,-39.03,-39.29,0,*62
1484845294.15,1808,3.13,74060.8,-9.85,-38.85,-39.09,0,*60
1484845295.37,1809,3.13,74056.5,-9.85,-39.09,-39.41,0,*68
1484845296.57,1810,3.13,74058.5,-9.85,-39.09,-39.47,0,*66
1484845297.82,1811,3.13,74052.5,-9.85,-39.03,-39.41,0,*6B
1484845299.04,1812,3.13,74056.5,-9.85,-39.09,-39.41,0,*62
1484845300.28,1813,3.13,74058.3,-9.83,-38.97,-39.23,0,*67
1484845301.52,1814,3.13,74062.0,-9.85,-38.91,-39.29,0,*6A
1484845302.72,1815,3.13,74056.8,-9.85,-39.09,-39.47,0,*63
1484845303.99,1816,3.13,74054.5,-9.83,-39.23,-39.53,0,*6B
1484845305.26,1817,3.13,74066.8,-9.83,-39.15,-39.53,0,*6F
1484845306.49,1818,3.13,74056.8,-9.83,-38.97,-39.23,0,*6C
1484845307.7,1819,3.13,74056.5,-9.83,-38.97,-39.35,0,*6A
1484845308.93,1820,3.13,74058.8,-9.85,-39.09,-39.41,0,*63
1484845310.17,1821,3.13,74058.8,-9.85,-39.03,-39.41,0,*68
1484845311.42,1822,3.13,74060.0,-9.83,-38.85,-39.15,0,*63
1484845312.65,1823,3.13,74062.0,-9.85,-39.09,-39.29,0,*6E
1484845313.92,1824,3.13,74058.3,-9.83,-39.03,-39.41,0,*6B
1484845315.18,1825,3.13,74060.0,-9.83,-39.03,-39.41,0,*6A
1484845316.45,1826,3.13,74058.8,-9.83,-39.23,-39.53,0,*68
1484845317.72,1827,3.13,74064.0,-9.83,-39.15,-39.41,0,*6F
1484845318.93,1828,3.13,74056.5,-9.83,-38.73,-38.97,0,*6B
1484845320.16,1829,3.13,74066.3,-9.81,-38.85,-39.15,0,*6A
1484845321.43,1830,3.13,74056.0,-9.83,-39.15,-39.53,0,*6A
1484845322.64,1831,3.13,74062.5,-9.83,-38.97,-39.35,0,*60
1484845323.9,1832,3.13,74056.3,-9.83,-39.03,-39.23,0,*68
1484845325.14,1833,3.13,74058.8,-9.83,-39.03,-39.35,0,*6E
1484845326.39,1834,3.13,74062.0,-9.81,-39.15,-39.53,0,*6C
1484845327.6,1835,3.13,74062.3,-9.81,-39.03,-39.35,0,*6A
1484845328.85,1836,3.13,74056.0,-9.81,-39.03,-39.41,0,*6A
1484845330.08,1837,3.13,74054.8,-9.83,-39.03,-39.35,0,*6A
1484845331.27,1838,3.13,74062.3,-9.81,-38.97,-39.35,0,*6B
1484845332.49,1839,3.13,74064.5,-9.81,-38.97,-39.15,0,*68
1484845333.71,1840,3.13,74054.5,-9.81,-38.85,-39.15,0,*65
1484845334.93,1841,3.13,74066.8,-9.81,-38.97,-39.23,0,*62
1484845336.17,1842,3.13,74056.3,-9.81,-39.03,-39.53,0,*6A
1484845337.44,1843,3.13,74066.5,-9.83,-39.15,-39.53,0,*6E
1484845338.68,1844,3.13,74058.5,-9.81,-39.03,-39.53,0,*6C
1484845339.86,1845,3.13,74064.5,-9.81,-38.97,-39.35,0,*61
1484845341.11,1846,3.13,74058.3,-9.81,-38.79,-39.15,0,*60
1484845342.36,1847,3.13,74062.0,-9.81,-38.79,-39.15,0,*61
1484845343.61,1848,3.13,74062.0,-9.83,-38.85,-39.23,0,*6A
1484845344.84,1849,3.13,74062.5,-9.81,-38.85,-39.15,0,*6C
1484845346.08,1850,3.13,74060.5,-9.81,-39.15,-39.41,0,*6D
1484845347.27,1851,3.13,74062.0,-9.81,-38.97,-39.35,0,*64
1484845348.51,1852,3.13,74062.0,-9.83,-38.97,-39.15,0,*67
1484845349.72,1853,3.13,74060.8,-9.79,-38.97,-39.41,0,*62
1484845350.97,1854,3.13,74060.0,-9.79,-38.91,-39.15,0,*62
1484845352.22,1855,3.13,74052.0,-9.79,-38.91,-39.29,0,*6C
1484845353.43,1856,3.13,74054.8,-9.79,-38.97,-39.29,0,*69
1484845354.66,1857,3.13,74058.5,-9.79,-39.09,-39.29,0,*6E
1484845355.88,1858,3.13,74052.3,-9.79,-39.09,-39.29,0,*61
1484845357.08,1859,3.13,74058.3,-9.79,-39.09,-39.35,0,*6D
1484845358.33,1860,3.13,74056.8,-9.79,-38.91,-39.29,0,*6A
1484845359.51,1861,3.13,74056.8,-9.81,-38.97,-39.35,0,*67
1484845360.72,1862,3.13,74058.3,-9.81,-38.97,-39.41,0,*67
1484845361.97,1863,3.13,74056.5,-9.81,-39.15,-39.53,0,*6E
1484845363.17,1864,3.13,74054.0,-9.79,-39.09,-39.35,0,*63
1484845364.39,1865,3.13,74062.0,-9.79,-39.15,-39.47,0,*6A
1484845365.61,1866,3.13,74056.3,-9.79,-39.15,-39.47,0,*69
1484845366.84,1867,3.13,74058.3,-9.79,-39.15,-39.47,0,*68
1484845368.06,1868,3.13,74070.8,-9.79,-39.15,-39.35,0,*62
1484845369.26,1869,3.13,74054.3,-9.79,-39.09,-39.35,0,*6E
1484845370.5,1870,3.13,74058.0,-9.79,-38.91,-39.15,0,*64
1484845371.73,1871,3.13,74060.3,-9.79,-39.15,-39.47,0,*6F
1484845372.94,1872,3.13,74064.8,-9.79,-38.97,-39.29,0,*6F
1484845374.13,1873,3.13,74060.8,-9.79,-38.97,-39.47,0,*66
1484845375.35,1874,3.13,74060.3,-9.79,-38.97,-39.15,0,*66
1484845376.55,1875,3.13,74058.8,-9.79,-39.09,-39.47,0,*66
1484845377.74,1876,3.13,74060.3,-9.79,-39.09,-39.47,0,*65
1484845378.93,1877,3.13,74058.3,-9.79,-38.97,-39.35,0,*67
1484845380.18,1878,3.13,74052.0,-9.79,-38.91,-39.29,0,*63
1484845381.45,1879,3.13,74056.5,-9.77,-38.91,-39.15,0,*63
1484845382.67,1880,3.13,74060.8,-9.77,-38.97,-39.35,0,*61
1484845383.89,1881,3.13,74056.0,-9.79,-38.97,-39.29,0,*63
1484845385.07,1882,3.13,74062.8,-9.79,-38.97,-39.47,0,*68
1484845386.32,1883,3.13,74058.8,-9.77,-39.15,-39.47,0,*6C
1484845387.58,1884,3.13,74052.3,-9.77,-39.15,-39.47,0,*6B
1484845388.83,1885,3.13,74056.5,-9.77,-39.15,-39.35,0,*6F
1484845390.06,1886,3.13,74056.5,-9.77,-39.09,-39.47,0,*64
1484845391.28,1887,3.13,74054.5,-9.77,-39.09,-39.35,0,*60
1484845392.51,1888,3.13,74054.8,-9.77,-39.09,-39.47,0,*6A
1484845393.73,1889,3.13,74060.8,-9.79,-39.15,-39.47,0,*68
1484845394.92,1890,3.13,74060.5,-9.79,-38.97,-39.35,0,*6E
1484845396.13,1891,3.13,74056.3,-9.77,-38.97,-39.47,0,*64
1484845397.41,1892,3.06,74052.3,-9.77,-39.15,-39.53,0,*69
1484845398.67,1893,3.13,74056.5,-9.77,-39.15,-39.47,0,*6D
1484845399.92,1894,3.13,74066.0,-9.77,-39.47,-39.71,0,*68
1484845401.15,1895,3.13,74060.8,-9.79,-39.47,-39.71,0,*67
1484845402.43,1896,3.13,74058.8,-9.77,-39.15,-39.53,0,*6D
1484845403.65,1897,3.06,74056.0,-9.79,-39.35,-39.71,0,*60
1484845404.92,1898,3.13,74056.0,-9.77,-39.29,-39.53,0,*6C
1484845406.14,1899,3.06,74056.5,-9.79,-39.35,-39.53,0,*6E
1484845407.38,1900,3.06,74064.5,-9.79,-39.29,-39.53,0,*62
1484845408.61,1901,3.13,74058.5,-9.79,-39.15,-39.47,0,*69
1484845409.85,1902,3.06,74058.0,-9.79,-38.91,-39.15,0,*60
1484845411.08,1903,3.13,74058.3,-9.77,-39.09,-39.35,0,*6D
1484845412.3,1904,3.06,74060.0,-9.79,-39.15,-39.47,0,*6C
1484845413.49,1905,3.13,74062.0,-9.79,-38.97,-39.35,0,*63
1484845414.68,1906,3.06,74058.8,-9.79,-38.97,-39.35,0,*60
1484845415.87,1907,3.13,74060.0,-9.79,-39.09,-39.47,0,*62
1484845417.12,1908,3.06,74054.3,-9.77,-39.35,-39.53,0,*69
1484845418.39,1909,3.13,74060.0,-9.77,-39.29,-39.53,0,*65
1484845419.63,1910,3.06,74058.8,-9.79,-39.29,-39.53,0,*63
1484845420.88,1911,3.06,74054.8,-9.79,-39.15,-39.53,0,*6D
1484845422.13,1912,3.13,74052.5,-9.79,-39.15,-39.53,0,*6E
1484845423.36,1913,3.06,74058.3,-9.77,-39.35,-39.65,0,*66
1484845424.58,1914,3.13,74058.0,-9.79,-39.15,-39.35,0,*68
1484845425.78,1915,3.13,74062.8,-9.79,-39.09,-39.35,0,*64
1484845427.0,1916,3.13,74058.5,-9.77,-38.97,-39.35,0,*6F
1484845428.19,1917,3.06,74054.3,-9.79,-39.35,-39.47,0,*6C
1484845429.41,1918,3.06,74056.3,-9.79,-39.15,-39.47,0,*61
1484845430.66,1919,3.06,74056.8,-9.79,-38.91,-39.15,0,*6A
1484845431.87,1920,3.06,74052.3,-9.77,-38.97,-39.35,0,*6A
1484845433.07,1921,3.06,74062.5,-9.79,-39.09,-39.47,0,*66
1484845434.31,1922,3.13,74062.0,-9.79,-39.29,-39.53,0,*62
1484845435.59,1923,3.06,74056.5,-9.77,-39.15,-39.53,0,*62
1484845436.79,1924,3.13,74066.3,-9.79,-39.09,-39.47,0,*63
1484845438.04,1925,3.06,74060.3,-9.77,-39.15,-39.35,0,*64
1484845439.24,1926,3.13,74066.5,-9.79,-39.09,-39.47,0,*61
1484845440.46,1927,3.06,74056.0,-9.77,-39.09,-39.35,0,*6B
1484845441.74,1928,3.06,74056.8,-9.77,-39.15,-39.53,0,*69
1484845442.96,1929,3.06,74056.3,-9.79,-39.35,-39.53,0,*64
1484845444.21,1930,3.06,74056.3,-9.77,-39.35,-39.53,0,*62
1484845445.45,1931,3.06,74062.8,-9.79,-39.29,-39.53,0,*60
1484845446.72,1932,3.06,74064.0,-9.77,-39.29,-39.53,0,*6D
1484845447.97,1933,3.06,74066.0,-9.79,-39.15,-39.53,0,*6D
1484845449.21,1934,3.06,74062.3,-9.77,-38.97,-39.29,0,*62
1484845450.4,1935,3.06,74062.8,-9.79,-38.97,-39.47,0,*65
1484845451.66,1936,3.06,74058.8,-9.77,-39.15,-39.65,0,*63
1484845452.91,1937,3.06,74058.5,-9.79,-39.29,-39.53,0,*66
1484845454.13,1938,3.06,74056.0,-9.79,-39.29,-39.65,0,*6C
1484845455.35,1939,3.06,74056.3,-9.79,-39.35,-39.71,0,*65
1484845456.61,1940,3.06,74048.5,-9.77,-39.29,-39.65,0,*6D
1484845457.83,1941,3.06,74058.3,-9.79,-39.53,-39.85,0,*61
1484845459.07,1942,3.06,74056.0,-9.79,-39.53,-39.71,0,*69
1484845460.3,1943,3.06,74052.0,-9.79,-39.29,-39.65,0,*60
1484845461.52,1944,3.06,74060.3,-9.79,-39.29,-39.65,0,*67
1484845462.76,1945,3.06,74050.8,-9.81,-39.59,-39.91,0,*6D
1484845463.99,1946,3.06,74058.0,-9.81,-39.59,-39.91,0,*6E
1484845465.23,1947,3.06,74052.8,-9.81,-39.53,-39.59,0,*61
1484845466.48,1948,3.06,74056.0,-9.81,-39.53,-39.71,0,*64
1484845467.71,1949,3.06,74060.0,-9.81,-39.41,-39.91,0,*68
1484845468.96,1950,3.06,74062.0,-9.81,-39.59,-39.79,0,*6F
1484845470.16,1951,3.06,74058.5,-9.79,-39.47,-39.85,0,*65
1484845471.42,1952,3.06,74050.3,-9.77,-39.35,-39.71,0,*66
1484845472.63,1953,3.06,74046.5,-9.79,-39.53,-39.85,0,*62
1484845473.88,1954,3.06,74054.5,-9.79,-39.53,-39.71,0,*6E
1484845475.13,1955,3.06,74054.5,-9.81,-39.41,-39.71,0,*6B
1484845476.38,1956,3.06,74064.0,-9.81,-39.53,-39.71,0,*6B
1484845477.63,1957,3.06,74054.3,-9.81,-39.41,-39.79,0,*61
1484845478.86,1958,3.06,74058.3,-9.81,-39.59,-39.91,0,*61
1484845480.11,1959,3.06,74056.0,-9.81,-39.23,-39.59,0,*69
1484845481.36,1960,3.06,74064.5,-9.81,-39.41,-39.59,0,*67
1484845482.61,1961,3.06,74052.8,-9.81,-39.41,-39.71,0,*6C
1484845483.83,1962,3.06,74056.0,-9.81,-39.35,-39.71,0,*6C
1484845485.05,1963,3.06,74058.0,-9.81,-39.35,-39.59,0,*67
1484845486.3,1964,3.06,74056.0,-9.81,-39.03,-39.41,0,*6C
1484845487.52,1965,3.06,74056.3,-9.81,-39.35,-39.59,0,*61
1484845488.74,1966,3.06,74062.3,-9.81,-39.35,-39.71,0,*68
1484845489.99,1967,3.06,74048.3,-9.81,-39.23,-39.59,0,*64
1484845491.23,1968,3.06,74050.5,-9.81,-39.03,-39.41,0,*60
1484845492.48,1969,3.06,74048.3,-9.83,-39.35,-39.59,0,*6F
1484845493.72,1970,3.06,74048.3,-9.81,-39.03,-39.53,0,*6A
1484845494.97,1971,3.06,74060.3,-9.81,-39.15,-39.53,0,*6C
1484845496.19,1972,3.06,74040.8,-9.79,-39.15,-39.47,0,*6D
1484845497.41,1973,3.06,74046.8,-9.79,-39.15,-39.47,0,*6C
1484845498.64,1974,3.06,74050.0,-9.81,-39.35,-39.71,0,*6B
1484845499.89,1975,3.06,74044.0,-9.81,-39.41,-39.59,0,*63
1484845501.13,1976,3.06,74050.3,-9.81,-39.15,-39.53,0,*6B
1484845502.38,1977,3.06,74048.5,-9.81,-39.23,-39.59,0,*65
1484845503.63,1978,3.06,74048.3,-9.81,-39.53,-39.79,0,*6F
1484845504.85,1979,3.06,74046.5,-9.81,-39.53,-39.91,0,*68
1484845506.08,1980,3.06,74050.5,-9.81,-39.59,-39.91,0,*64
1484845507.33,1981,3.06,74054.3,-9.81,-39.53,-39.79,0,*69
1484845508.58,1982,3.06,74066.3,-9.81,-39.53,-39.71,0,*62
1484845509.85,1983,3.06,74054.0,-9.83,-39.59,-39.97,0,*63
1484845511.1,1984,3.06,74062.0,-9.81,-39.41,-39.71,0,*67
1484845512.38,1985,3.06,74062.3,-9.83,-39.41,-39.71,0,*64
1484845513.64,1986,3.06,74058.0,-9.83,-39.03,-39.41,0,*62
1484845514.89,1987,3.06,74060.0,-9.81,-39.15,-39.53,0,*65
1484845516.14,1988,3.06,74060.8,-9.81,-39.15,-39.53,0,*6A
1484845517.38,1989,3.06,74052.8,-9.81,-39.15,-39.53,0,*6B
1484845518.63,1990,3.06,74056.3,-9.81,-39.15,-39.53,0,*63
1484845519.88,1991,3.06,74052.0,-9.81,-39.15,-39.53,0,*62
1484845521.12,1992,3.06,74052.8,-9.81,-39.23,-39.53,0,*64
1484845522.37,1993,3.06,74054.5,-9.81,-39.23,-39.59,0,*6F
1484845523.62,1994,3.06,74050.8,-9.83,-39.35,-39.59,0,*6D
1484845524.89,1995,3.06,74050.5,-9.83,-39.23,-39.59,0,*6B
1484845526.16,1996,3.06,74060.0,-9.83,-39.23,-39.59,0,*68
1484845527.38,1997,3.06,74052.8,-9.81,-39.35,-39.59,0,*6C
1484845528.61,1998,3.06,74056.3,-9.81,-39.35,-39.71,0,*69
1484845529.88,1999,3.06,74062.5,-9.83,-39.23,-39.59,0,*67
1484845531.14,2000,3.06,74052.3,-9.83,-39.23,-39.53,0,*67
1484845532.41,2001,3.06,74054.0,-9.83,-39.03,-39.53,0,*64
1484845533.65,2002,3.06,74052.5,-9.81,-39.23,-39.53,0,*67
1484845534.91,2003,3.06,74064.0,-9.81,-39.15,-39.59,0,*69
1484845536.18,2004,3.06,74058.8,-9.83,-39.15,-39.59,0,*6C
1484845537.45,2005,3.06,74060.0,-9.83,-39.03,-39.41,0,*63
1484845538.69,2006,3.06,74062.3,-9.81,-39.23,-39.53,0,*63
1484845539.96,2007,3.06,74056.5,-9.83,-39.15,-39.41,0,*66
1484845541.18,2008,3.06,74060.3,-9.81,-38.73,-39.03,0,*6C
1484845542.42,2009,3.06,74058.3,-9.83,-38.85,-39.23,0,*64
1484845543.67,2010,3.06,74058.3,-9.81,-39.03,-39.23,0,*61
1484845544.86,2011,3.06,74062.5,-9.81,-38.85,-39.35,0,*68
1484845546.05,2012,3.06,74058.3,-9.81,-38.97,-39.35,0,*68
1484845547.26,2013,3.06,74060.0,-9.81,-39.03,-39.35,0,*65
1484845548.49,2014,3.06,74062.3,-9.79,-38.79,-39.09,0,*66
1484845549.71,2015,3.06,74054.8,-9.81,-38.79,-38.97,0,*66
1484845550.94,2016,3.06,74062.8,-9.81,-38.85,-39.15,0,*6D
1484845552.15,2017,3.06,74062.8,-9.81,-39.03,-39.35,0,*61
1484845553.38,2018,3.06,74066.3,-9.79,-39.15,-39.47,0,*6B
1484845554.6,2019,3.06,74062.5,-9.81,-38.85,-39.23,0,*67
1484845555.85,2020,3.06,74060.3,-9.81,-39.15,-39.53,0,*62
1484845557.06,2021,3.06,74058.8,-9.79,-38.97,-39.29,0,*62
1484845558.31,2022,3.06,74062.0,-9.79,-38.91,-39.15,0,*68
1484845559.53,2023,3.06,74058.3,-9.79,-39.15,-39.47,0,*63
1484845560.75,2024,3.06,74062.8,-9.79,-38.97,-39.29,0,*67
1484845561.94,2025,3.06,74064.5,-9.79,-38.97,-39.35,0,*6B
1484845563.12,2026,3.06,74060.8,-9.79,-38.97,-39.47,0,*6D
1484845564.35,2027,3.06,74066.8,-9.79,-39.15,-39.35,0,*62
1484845565.56,2028,3.06,74068.0,-9.79,-38.97,-39.29,0,*6B
1484845566.79,2029,3.06,74070.3,-9.79,-38.91,-39.09,0,*6E
1484845568.03,2030,3.06,74058.0,-9.79,-38.91,-39.29,0,*64
1484845569.25,2031,3.06,74056.3,-9.81,-39.03,-39.35,0,*65
1484845570.49,2032,3.06,74060.5,-9.79,-38.91,-39.29,0,*66
1484845571.68,2033,3.06,74052.0,-9.79,-38.97,-39.47,0,*69
1484845572.88,2034,3.06,74058.0,-9.79,-39.09,-39.47,0,*68
1484845574.1,2035,3.06,74054.0,-9.79,-39.15,-39.47,0,*64
1484845575.32,2036,3.06,74054.0,-9.77,-39.09,-39.47,0,*64
1484845576.52,2037,3.06,74056.5,-9.79,-39.09,-39.47,0,*6B
1484845577.77,2038,3.06,74060.5,-9.79,-39.15,-39.53,0,*6C
1484845578.97,2039,3.06,74062.5,-9.79,-39.09,-39.47,0,*65
1484845580.16,2040,3.06,74064.5,-9.79,-39.09,-39.47,0,*6B
1484845581.39,2041,3.06,74062.8,-9.79,-39.15,-39.47,0,*67
1484845582.61,2042,3.06,74056.3,-9.79,-39.29,-39.65,0,*6B
1484845583.83,2043,3.06,74054.3,-9.79,-39.35,-39.53,0,*62
1484845585.05,2044,3.06,74054.5,-9.79,-39.35,-39.53,0,*65
1484845586.3,2045,3.06,74050.5,-9.79,-39.15,-39.53,0,*66
1484845587.55,2046,3.06,74052.8,-9.77,-39.29,-39.65,0,*61
1484845588.77,2047,3.06,74054.5,-9.79,-39.35,-39.53,0,*66
1484845590.01,2048,3.06,74056.5,-9.79,-39.29,-39.53,0,*64
1484845591.23,2049,3.0,74054.3,-9.81,-39.35,-39.59,0,*65
1484845592.48,2050,3.0,74052.3,-9.81,-39.41,-39.71,0,*64
1484845593.73,2051,3.06,74060.3,-9.81,-39.41,-39.71,0,*65
1484845594.98,2052,3.06,74052.3,-9.81,-39.41,-39.59,0,*6C
1484845596.23,2053,3.06,74058.8,-9.81,-39.41,-39.71,0,*67
1484845597.46,2054,3.06,74056.3,-9.81,-39.35,-39.59,0,*69
1484845598.73,2055,3.0,74054.5,-9.83,-39.15,-39.53,0,*62
1484845599.97,2056,3.06,74056.0,-9.81,-39.15,-39.53,0,*63
1484845601.22,2057,3.06,74058.5,-9.81,-39.15,-39.53,0,*62
1484845602.41,2058,3.0,74058.8,-9.81,-38.97,-39.35,0,*66
1484845603.59,2059,3.0,74058.3,-9.81,-38.97,-39.35,0,*67
1484845604.83,2060,3.06,74058.0,-9.81,-39.03,-39.53,0,*61
1484845606.03,2061,3.06,74056.0,-9.79,-39.09,-39.47,0,*68
1484845607.27,2062,3.06,74058.0,-9.79,-39.29,-39.53,0,*6C
1484845608.52,2063,3.0,74052.8,-9.81,-39.41,-39.59,0,*6E
1484845609.77,2064,3.0,74048.3,-9.81,-39.23,-39.59,0,*6D
1484845611.02,2065,3.06,74056.8,-9.81,-39.15,-39.59,0,*69
1484845612.27,2066,3.0,74054.5,-9.81,-39.23,-39.59,0,*6F
1484845613.55,2067,3.0,74056.5,-9.83,-39.23,-39.59,0,*6C
1484845614.79,2068,3.0,74056.8,-9.81,-39.23,-39.59,0,*61
1484845616.07,2069,3.06,74056.5,-9.83,-39.15,-39.53,0,*6D
1484845617.34,2070,3.0,74058.8,-9.83,-39.41,-39.79,0,*6C
1484845618.59,2071,3.06,74062.0,-9.81,-39.15,-39.53,0,*66
1484845619.83,2072,3.06,74064.0,-9.81,-39.03,-39.53,0,*62
1484845621.08,2073,3.06,74062.3,-9.81,-39.23,-39.59,0,*6B
1484845622.35,2074,3.0,74054.0,-9.83,-39.23,-39.59,0,*6E
1484845623.61,2075,3.06,74058.5,-9.83,-39.23,-39.53,0,*65
1484845624.86,2076,3.06,74066.3,-9.81,-39.15,-39.53,0,*61
1484845626.07,2077,3.0,74056.0,-9.81,-38.97,-39.23,0,*6C
1484845627.29,2078,3.06,74056.3,-9.81,-38.97,-39.41,0,*67
1484845628.52,2079,3.0,74054.5,-9.83,-38.97,-39.41,0,*64
1484845629.79,2080,3.06,74056.5,-9.83,-39.03,-39.41,0,*6E
1484845631.01,2081,3.0,74058.3,-9.81,-38.73,-39.03,0,*6D
1484845632.22,2082,3.06,74056.5,-9.81,-39.03,-39.35,0,*6D
1484845633.46,2083,3.06,74054.5,-9.81,-39.03,-39.41,0,*6F
1484845634.67,2084,3.06,74058.8,-9.81,-38.97,-39.23,0,*60
1484845635.93,2085,3.0,74052.5,-9.81,-38.79,-39.15,0,*64
1484845637.14,2086,3.0,74056.5,-9.81,-38.97,-39.23,0,*62
1484845638.39,2087,3.06,74066.0,-9.79,-38.79,-39.29,0,*6E
1484845639.63,2088,3.0,74056.5,-9.81,-39.23,-39.53,0,*65
1484845640.84,2089,3.0,74054.5,-9.81,-38.97,-39.41,0,*69
1484845642.09,2090,3.0,74060.8,-9.79,-38.79,-39.15,0,*67
1484845643.34,2091,3.06,74060.8,-9.79,-38.91,-39.29,0,*6F
1484845644.56,2092,3.0,74052.5,-9.79,-38.97,-39.29,0,*6A
1484845645.8,2093,3.0,74062.5,-9.79,-38.91,-39.15,0,*62
1484845647.02,2094,3.0,74056.3,-9.81,-39.03,-39.35,0,*6A
1484845648.23,2095,3.0,74052.0,-9.81,-39.03,-39.35,0,*6B
1484845649.48,2096,3.0,74060.3,-9.81,-39.15,-39.53,0,*6F
1484845650.66,2097,3.0,74058.8,-9.81,-38.97,-39.35,0,*65
1484845651.91,2098,3.0,74064.8,-9.81,-39.03,-39.41,0,*65
1484845653.12,2099,3.0,74060.5,-9.81,-38.97,-39.23,0,*6C
1484845654.37,2100,3.0,74062.8,-9.81,-39.15,-39.53,0,*61
1484845655.62,2101,3.0,74058.5,-9.81,-39.15,-39.23,0,*67
1484845656.84,2102,3.0,74066.5,-9.81,-38.85,-39.23,0,*6C
1484845658.09,2103,3.0,74064.8,-9.79,-38.79,-39.15,0,*6C
1484845659.32,2104,3.0,74056.5,-9.79,-38.79,-39.09,0,*66
1484845660.57,2105,3.0,74060.3,-9.79,-38.91,-39.15,0,*6C
1484845661.82,2106,3.0,74060.8,-9.79,-38.91,-39.15,0,*6F
1484845663.03,2107,3.0,74060.3,-9.79,-38.91,-39.47,0,*69
1484845664.25,2108,3.0,74062.0,-9.79,-38.97,-39.29,0,*68
1484845665.47,2109,3.0,74062.3,-9.79,-38.79,-38.97,0,*6D
1484845666.7,2110,3.0,74066.8,-9.79,-38.79,-38.97,0,*65
1484845667.93,2111,3.0,74066.5,-9.79,-38.79,-39.09,0,*62
1484845669.18,2112,3.0,74064.0,-9.79,-38.79,-39.15,0,*6C
1484845670.41,2113,3.0,74062.8,-9.79,-38.79,-39.09,0,*60
1484845671.66,2114,3.0,74064.3,-9.79,-38.79,-39.29,0,*65
1484845672.94,2115,3.0,74064.5,-9.77,-38.79,-39.15,0,*65
1484845674.15,2116,3.0,74062.8,-9.77,-38.97,-39.35,0,*64
1484845675.43,2117,3.0,74060.8,-9.77,-38.91,-39.15,0,*61
1484845676.63,2118,3.0,74066.5,-9.79,-38.73,-39.09,0,*61
1484845677.85,2119,3.0,74060.5,-9.77,-38.73,-38.97,0,*68
1484845679.13,2120,3.0,74062.5,-9.77,-38.91,-39.29,0,*6A
1484845680.4,2121,3.0,74072.8,-9.77,-38.91,-39.15,0,*64
1484845681.65,2122,3.0,74064.0,-9.79,-38.91,-39.15,0,*69
1484845682.91,2123,3.0,74068.8,-9.77,-38.91,-39.09,0,*6B
1484845684.18,2124,3.0,74066.0,-9.77,-38.91,-39.29,0,*6E
1484845685.4,2125,3.0,74064.8,-9.79,-38.91,-39.35,0,*6C
1484845686.66,2126,3.0,74068.0,-9.77,-38.79,-39.09,0,*68
1484845687.91,2127,3.0,74060.5,-9.79,-38.79,-39.29,0,*65
1484845689.19,2128,3.0,74062.8,-9.77,-38.79,-39.15,0,*6B
1484845690.47,2129,3.0,74070.0,-9.77,-38.79,-38.91,0,*67
1484845691.72,2130,3.0,74062.5,-9.77,-38.79,-38.97,0,*69
1484845692.98,2131,3.0,74068.8,-9.77,-38.79,-39.09,0,*6E
1484845694.26,2132,3.0,74060.0,-9.77,-38.91,-39.29,0,*69
1484845695.48,2133,3.0,74068.0,-9.75,-38.85,-39.23,0,*65
1484845696.76,2134,3.0,74064.8,-9.77,-38.91,-39.15,0,*60
1484845697.96,2135,3.0,74062.8,-9.75,-38.85,-39.09,0,*6B
1484845699.18,2136,3.0,74066.0,-9.75,-38.73,-38.91,0,*61
1484845700.46,2137,3.0,74070.0,-9.77,-38.79,-39.15,0,*65
1484845701.68,2138,3.0,74064.5,-9.77,-38.97,-39.35,0,*68
1484845702.88,2139,3.0,74064.3,-9.75,-38.85,-39.09,0,*67
1484845704.1,2140,3.0,74062.0,-9.75,-38.73,-39.23,0,*68
1484845705.35,2141,3.0,74072.0,-9.75,-38.91,-39.23,0,*65
1484845706.6,2142,3.0,74066.3,-9.77,-38.79,-39.09,0,*6A
1484845707.88,2143,3.0,74058.5,-9.77,-38.91,-39.29,0,*6F
1484845709.13,2144,3.0,74064.3,-9.77,-38.91,-39.09,0,*6A
1484845710.38,2145,3.0,74062.0,-9.75,-38.91,-39.29,0,*6B
1484845711.59,2146,3.0,74054.0,-9.75,-38.73,-39.03,0,*6C